NOAA 16 DEB, 42350

Orbit data source: Space-Track

NOAA 16 DEB, 42350 is space debris in SSO originally from a launch on Thu, 21 Sep 2000 UTC launched from the Air Force Western Test Range (AFWTR). Debris objects in space refer to the collection of defunct objects orbiting the Earth. Examples of debris include non-operational satellites, rocket bodies, and fragments generated from explosions, collisions, or faulty payload assembly.

Loading next visibility...
Identifier
42350, 2000-055QS
Orbit
SSO
Country
Flag of USUS
Related business
Manufacturer
Unknown
Mission
Spacecraft
Bus & Motor
Unknown
Mass
Unknown
Launch date (UTC)
2000-09-21 (26 years ago)
Launch vehicle
Unknown
Launch site
Air Force Western Test Range (AFWTR)
Object type
Payload
Rocket body
Debris
Shape & HBR
Unknown shape, 0.1 m
Radar Cross Section
Small (<0.1 m²)

Expand to show TLE details & history
Last TLE update: 2 weeks ago

TLE from 2 weeks ago
0 NOAA 16 DEB
1 42350U 00055QS  26159.19232899  .00000686  00000-0  40712-3 0  9997
2 42350  98.6601 144.7035 0029495 263.6569  96.1243 14.10547489494999
Epoch: 2026-06-08T04:36Z
TLE epoch observation values (Epoch: 2026-06-08T04:36:57.224Z)
Latitude
-0.00003°
Longitude
178.88236°
Altitude
862.741 km
Speed
7.42 km/s
True Right ascension
09h 38m 48s
True Declination
0° 00' 00"
Sunlit
Object was in daylight at epoch
Visualization orbit readout
Latitude
Unknown
Longitude
Unknown
Altitude
Unknown
Speed
Unknown
Apparent Right ascension
Unknown
Apparent Declination
Unknown
Sunlit
N/A
Visualization observer readout
Local Sidereal Time
02:13:23
Azimuth
Unknown
Elevation
Unknown
Doppler factor
Unknown
Orbital elements
Apogee altitude
876.001 km
Perigee altitude
833.335 km
Semi-major axis
7,232.805 km
Eccentricity
0.00295
Inclination
98.6601°
RAAN
144.7035°
Arg. of periapsis
263.6569°
True anomaly
96.46022°
Mean anomaly
96.1243°
Eccentric anomaly
96.29228°
Mean motion
3.52844 °/min
Orbital period
102.03 mins
BSTAR
0.00040712
Loading maneuver chart data...
Computing Atmospheric mass density...
Loading historical data...
Loading historical data...
Loading historical data...
Loading historical data...
Loading historical data...
Loading historical data...
Loading historical data...

Documentation

Showing up to 5 results
|